KT2UU-13 Weather Reports


time (UTC)temp
F
wind
direction
speed
knots
gust
knots
rain 1hr
in
rain 24hr
in
rain mn
in
humidity
%
barometer
mb
20260507185943 67 200 0.9 3.5 0.00 1.34 1.34 78 1014.3
20260507185439 67 208 1.7 1.7 0.00 1.34 1.34 77 1014.2
20260507184936 67 255 0.9 3.5 0.00 1.34 1.34 78 1014.5
20260507184434 66 266 0.9 7.8 0.00 1.34 1.34 77 1014.5
20260507183932 67 261 1.7 2.6 0.00 1.34 1.34 76 1014.6
20260507183428 67 250 0.9 1.7 0.00 1.34 1.34 79 1014.5
20260507182926 67 179 1.7 5.2 0.00 1.34 1.34 79 1014.4
20260507182421 66 279 0.9 0.9 0.00 1.34 1.34 79 1014.4
20260507181918 65 262 0.0 7.8 0.00 1.34 1.34 81 1014.5
20260507181414 65 185 1.7 2.6 0.00 1.34 1.34 80 1014.7
20260507180911 64 211 3.5 6.1 0.00 1.34 1.34 82 1014.8
20260507180407 64 247 2.6 3.5 0.00 1.34 1.34 81 1014.7
20260507175903 65 190 3.5 6.1 0.00 1.34 1.34 82 1014.9
20260507175400 64 122 0.9 5.2 0.00 1.34 1.34 85 1014.8
20260507174858 63 248 0.0 3.5 0.00 1.34 1.34 84 1014.8
20260507174355 62 249 0.9 3.5 0.00 1.34 1.34 86 1014.7
20260507173853 62 5 2.6 7.0 0.00 1.34 1.34 86 1015.0
20260507173349 62 207 1.7 5.2 0.00 1.34 1.34 85 1014.8
20260507172846 62 187 2.6 3.5 0.00 1.34 1.34 87 1014.9
20260507172342 62 220 0.0 3.5 0.00 1.34 1.34 87 1014.7
20260507171838 61 353 1.7 2.6 0.00 1.34 1.34 88 1014.6
20260507171335 60 350 0.0 1.7 0.00 1.34 1.34 90 1014.9
20260507170832 60 271 1.7 2.6 0.00 1.34 1.34 90 1014.9
20260507170329 59 261 2.6 5.2 0.00 1.34 1.34 91 1014.9
20260507165825 59 263 0.9 3.5 0.00 1.34 1.34 92 1015.2
20260507165321 58 208 1.7 6.1 0.00 1.34 1.34 94 1015.1
20260507164817 58 335 3.5 7.0 0.00 1.34 1.34 94 1015.1
20260507164314 59 211 3.5 7.0 0.00 1.34 1.34 94 1015.1
20260507163811 59 252 1.7 3.5 0.00 1.34 1.34 94 1015.1
20260507163309 59 235 3.5 6.1 0.00 1.34 1.34 94 1015.1
20260507162805 59 205 1.7 3.5 0.00 1.34 1.34 95 1014.9
20260507162301 60 194 1.7 5.2 0.00 1.34 1.34 94 1014.7
20260507161758 60 238 0.9 7.0 0.00 1.34 1.34 95 1014.7
20260507161254 60 251 4.3 6.1 0.00 1.34 1.34 94 1014.7
20260507160750 60 197 1.7 5.2 0.00 1.34 1.34 95 1014.6
20260507160247 59 226 3.5 6.1 0.00 1.34 1.34 95 1014.2
20260507155743 60 233 2.6 7.0 0.00 1.34 1.34 95 1014.4
20260507155239 59 259 1.7 5.2 0.00 1.34 1.34 96 1014.2
20260507154736 59 232 3.5 6.1 0.00 1.34 1.34 97 1014.3
20260507154234 59 317 2.6 6.1 0.00 1.34 1.34 97 1014.2
20260507153730 59 173 1.7 2.6 0.00 1.34 1.34 99 1014.3
20260507153226 59 231 0.9 2.6 0.00 1.34 1.34 99 1014.2
20260507152723 59 183 0.9 1.7 0.00 1.34 1.34 99 1014.0
20260507152219 59 224 1.7 2.6 0.00 1.34 1.34 99 1014.1
20260507151715 59 310 0.9 3.5 0.00 1.34 1.34 99 1014.0
20260507151212 59 130 0.0 1.7 0.00 1.34 1.34 99 1014.1
20260507150709 58 246 0.0 2.6 0.00 1.34 1.34 99 1013.9
20260507150206 58 234 1.7 8.7 0.00 1.34 1.34 99 1014.1
20260507145701 58 289 1.7 2.6 0.00 1.34 1.34 99 1014.0
20260507145158 58 249 0.9 2.6 0.00 1.34 1.34 99 1014.0
20260507144655 58 245 1.7 5.2 0.00 1.34 1.34 99 1013.9
20260507144153 58 218 0.9 7.0 0.00 1.34 1.34 99 1013.8
20260507143650 58 298 0.0 3.5 0.00 1.34 1.34 99 1013.8
20260507143147 58 221 1.7 2.6 0.00 1.34 1.34 99 1013.9
20260507142642 59 170 6.1 7.8 0.00 1.34 1.34 99 1013.8
20260507142139 59 265 2.6 3.5 0.00 1.34 1.34 99 1014.2
20260507141636 58 213 0.9 6.1 0.00 1.34 1.34 99 1014.3
20260507141132 58 217 0.9 2.6 0.00 1.34 1.34 99 1014.1
20260507140629 58 265 4.3 6.1 0.00 1.34 1.34 99 1014.2
20260507140126 58 266 2.6 3.5 0.00 1.34 1.34 99 1014.1
20260507135623 58 298 0.9 5.2 0.00 1.34 1.34 99 1014.0
20260507135121 58 346 0.0 5.2 0.00 1.34 1.34 99 1013.8
20260507134617 58 202 0.9 6.1 0.00 1.34 1.34 99 1013.9
20260507134113 59 233 3.5 5.2 0.05 1.34 1.34 99 1014.1
20260507133609 59 229 2.6 5.2 0.05 1.34 1.34 99 1014.0
20260507133107 59 171 4.3 5.2 0.00 1.33 1.33 99 1013.7
20260507132603 59 217 1.7 3.5 0.00 1.33 1.33 99 1013.7
20260507132100 60 197 0.9 5.2 0.00 1.33 1.33 99 1013.6
20260507131557 60 225 2.6 6.1 0.00 1.33 1.33 99 1013.5
20260507131054 60 23 0.9 6.1 0.00 1.33 1.33 99 1013.4
20260507130551 60 242 1.7 3.5 0.00 1.33 1.33 99 1013.4
20260507130049 60 237 1.7 7.0 0.00 1.33 1.33 99 1013.1
20260507125547 61 230 0.0 3.5 0.00 1.33 1.33 99 1013.1
20260507125039 60 264 1.7 2.6 0.00 1.33 1.33 99 1012.9
20260507124535 61 250 2.6 5.2 0.00 1.33 1.33 99 1012.9
20260507124033 61 220 1.7 3.5 0.00 1.33 1.33 99 1012.8
20260507123531 61 220 0.9 2.6 0.00 1.33 1.33 99 1012.7
20260507123027 62 242 1.7 5.2 0.00 1.33 1.33 99 1012.3
20260507122522 62 241 0.0 2.6 0.00 1.33 1.33 99 1012.0
20260507122019 62 244 0.0 2.6 0.00 1.33 1.33 99 1012.3
20260507121514 62 221 0.9 0.9 0.00 1.33 1.33 99 1012.3
20260507121010 62 301 0.0 0.0 0.12 1.33 1.33 99 1012.6
20260507120507 62 233 1.7 3.5 0.24 1.33 1.33 99 1012.8
20260507120005 62 248 0.0 2.6 0.24 1.30 1.30 99 1011.8
20260507115459 62 243 0.9 1.7 0.31 1.28 1.28 99 1012.4
20260507114955 62 219 0.0 0.0 0.31 1.26 1.26 99 1012.9
20260507114451 62 242 0.0 0.0 0.17 1.23 1.23 99 1013.0
20260507113944 62 239 0.9 1.7 0.05 1.21 1.21 99 1013.1
20260507113441 62 260 1.7 2.6 0.07 1.20 1.20 99 1012.8
20260507112938 62 235 0.0 0.9 0.12 1.20 1.20 99 1012.7
20260507112435 62 236 0.0 2.6 0.17 1.19 1.19 99 1012.4
20260507111932 62 259 1.7 2.6 0.42 1.17 1.17 99 1012.1
20260507111430 62 346 0.0 2.6 0.90 1.15 1.15 99 1012.0
20260507110926 62 218 0.0 1.7 0.42 1.06 1.06 99 1012.4
20260507110422 62 242 1.7 6.1 0.12 1.00 1.00 99 1013.0
20260507105919 62 257 1.7 3.5 0.05 0.99 0.99 99 1012.5
20260507105416 62 299 0.0 0.0 0.00 0.98 0.98 99 1012.0
20260507104912 62 252 0.0 1.7 0.00 0.98 0.98 99 1011.5
20260507104409 62 244 0.9 1.7 0.00 0.98 0.98 99 1011.3
20260507103905 62 351 0.0 0.9 0.00 0.98 0.98 99 1011.2
20260507103402 62 236 0.0 0.0 0.00 0.98 0.98 99 1011.4
20260507102858 62 193 0.0 0.9 0.00 0.98 0.98 99 1011.5
20260507102354 62 193 0.0 0.9 0.00 0.98 0.98 99 1011.5
20260507101850 62 283 0.0 0.9 0.00 0.98 0.98 99 1011.6
20260507101345 62 210 0.9 1.7 0.00 0.98 0.98 99 1011.8
20260507100842 62 237 0.0 1.7 0.07 0.98 0.98 99 1012.0
20260507100341 62 340 0.0 0.9 0.12 0.98 0.98 99 1011.5
20260507095838 62 340 0.9 0.9 0.66 0.97 0.97 99 1011.8
20260507095335 63 319 0.9 1.7 1.94 0.96 0.96 99 1012.2
20260507094832 63 212 1.7 3.5 1.56 0.84 0.84 99 1012.7
20260507094328 63 232 3.5 5.2 0.28 0.62 0.62 99 1013.5
20260507093825 63 232 3.5 8.7 0.00 0.57 0.57 99 1012.8
20260507093324 63 241 1.7 3.5 0.07 0.57 0.57 99 1012.0
20260507092821 63 349 0.0 0.9 0.19 0.57 0.57 99 1011.0
20260507092318 63 345 0.0 0.0 0.19 0.55 0.55 99 1011.0
20260507091814 63 341 0.0 0.9 0.24 0.54 0.54 99 1011.3
20260507091311 63 223 0.0 0.0 0.19 0.52 0.52 99 1011.6
20260507090805 63 228 0.0 0.9 0.00 0.49 0.49 99 1012.0
20260507090302 63 245 0.0 0.9 0.00 0.49 0.49 99 1011.8
20260507085759 63 245 0.0 0.0 0.05 0.49 0.49 99 1011.4
20260507085256 63 246 0.0 0.0 0.05 0.49 0.49 99 1012.0
20260507084754 63 252 0.0 0.0 0.00 0.48 0.48 99 1011.9
20260507084250 63 252 0.9 0.9 0.00 0.48 0.48 99 1011.9
20260507083748 63 325 0.0 0.0 0.00 0.48 0.48 99 1011.6
20260507083244 63 325 0.0 0.0 0.07 0.48 0.48 99 1011.4
20260507082740 63 305 0.0 0.0 0.07 0.48 0.48 99 1011.4
20260507082236 63 304 0.0 0.0 0.00 0.47 0.47 99 1011.8
20260507081733 63 243 0.0 0.9 0.00 0.47 0.47 99 1012.1
20260507081229 63 247 0.0 0.9 0.05 0.47 0.47 99 1011.9
20260507080726 63 237 0.0 0.0 0.05 0.47 0.47 99 1012.2
20260507080222 63 6 0.9 0.9 0.07 0.46 0.46 99 1011.8
20260507075717 63 6 0.0 0.0 0.07 0.46 0.46 99 1011.6
20260507075214 63 6 0.0 0.0 0.00 0.45 0.45 99 1011.7
20260507074710 63 6 0.0 0.0 0.00 0.45 0.45 99 1012.0
20260507074209 62 6 0.0 0.0 0.00 0.45 0.45 99 1011.8
20260507073705 63 6 0.0 0.0 0.05 0.45 0.45 99 1012.0
20260507073201 63 6 0.0 0.0 0.12 0.45 0.45 99 1011.9
20260507072659 63 6 0.0 0.0 0.12 0.44 0.44 99 1012.0
20260507072156 63 4 0.0 0.0 0.05 0.43 0.43 99 1012.2
20260507071654 63 2 0.0 0.9 0.07 0.42 0.42 99 1012.2
20260507071150 63 2 0.0 0.0 0.14 0.42 0.42 99 1012.0
20260507070647 63 0 0.0 0.0 0.12 0.41 0.41 99 1012.1
20260507070144 63 0 0.0 0.0 0.24 0.40 0.40 99 1012.4
20260507065640 63 4 0.0 0.9 0.66 0.39 0.39 99 1012.1
20260507065137 63 9 0.9 0.9 1.09 0.35 0.35 99 1011.6
20260507064635 63 342 0.0 0.9 0.78 0.28 0.28 99 1013.2
20260507064133 63 349 0.0 0.0 0.19 0.17 0.17 99 1012.9
20260507063630 63 348 0.0 0.0 0.19 0.15 0.15 99 1013.1
20260507063127 63 348 0.0 0.9 0.28 0.14 0.14 99 1012.5
20260507062624 63 341 0.0 0.0 0.24 0.12 0.12 99 1012.9
20260507062122 63 227 0.0 0.0 0.12 0.10 0.10 99 1013.5
20260507061619 63 232 0.9 1.7 0.05 0.08 0.08 99 1013.4
20260507061117 63 212 0.0 0.9 0.17 0.08 0.08 99 1013.0
20260507060615 63 211 0.0 0.0 0.19 0.07 0.07 99 1013.6
20260507060111 63 211 0.9 1.7 0.12 0.05 0.05 99 1013.7
20260507055606 63 211 0.0 0.0 0.12 0.04 0.04 99 1013.4
20260507055103 63 211 0.0 0.0 0.07 0.03 0.03 99 1013.1
20260507054559 63 211 0.0 0.9 0.00 0.02 0.02 99 1013.4
20260507054056 63 211 0.0 0.0 0.00 0.02 0.02 99 1013.4
20260507053554 63 211 0.9 1.7 0.00 0.02 0.02 99 1013.5
20260507053052 63 211 0.0 0.9 0.00 0.02 0.02 99 1014.2
20260507052550 63 211 0.0 0.0 0.00 0.02 0.02 99 1013.9
20260507052046 63 344 0.9 0.9 0.00 0.02 0.02 99 1014.2
20260507051544 63 344 0.0 0.0 0.00 0.02 0.02 99 1014.1
20260507051041 63 344 0.0 0.0 0.00 0.02 0.02 99 1014.0
20260507050537 63 344 0.9 0.9 0.00 0.02 0.02 99 1013.5
20260507050034 63 246 0.0 0.0 0.07 0.02 0.02 99 1014.5
20260507045530 63 226 0.9 1.7 0.07 0.02 0.02 99 1014.1
20260507045027 63 240 0.0 0.0 0.00 0.01 0.01 99 1014.2
20260507044524 63 240 0.0 0.0 0.00 0.01 0.01 99 1014.2
20260507044021 63 240 0.0 0.0 0.00 0.01 0.01 99 1014.1
20260507043517 63 240 0.0 0.0 0.00 0.01 0.01 99 1014.1
20260507043015 63 240 0.0 0.0 0.00 0.01 0.01 99 1014.0
20260507042510 63 240 0.0 0.9 0.00 0.01 0.01 99 1013.9
20260507042006 63 240 0.0 0.9 0.00 0.01 0.01 99 1013.5
20260507041503 63 256 0.0 1.7 0.00 0.01 0.01 99 1013.8
20260507041000 63 243 0.9 1.7 0.05 0.01 0.01 99 1014.0
20260507040456 63 243 0.0 0.0 0.00 0.00 0.00 99 1014.1
20260507035951 63 243 0.0 0.0 0.00 1.33 1.33 99 1014.1
20260507035448 63 243 0.0 0.0 0.00 1.33 1.33 99 1014.1
20260507034945 63 243 0.0 0.0 0.00 1.33 1.33 99 1014.1
20260507034442 63 243 0.0 0.0 0.00 1.33 1.33 99 1013.9
20260507033940 63 243 0.0 0.0 0.00 1.33 1.33 99 1013.8
20260507033438 63 243 0.0 0.0 0.00 1.33 1.33 99 1013.5
20260507032934 63 243 0.0 0.0 0.00 1.33 1.33 99 1013.7
20260507032432 63 243 0.0 0.0 0.00 1.33 1.33 99 1013.8
20260507031927 63 243 0.0 0.0 0.00 1.33 1.33 99 1013.7
20260507031426 63 243 0.0 0.0 0.00 1.33 1.33 99 1013.8
20260507030921 63 243 0.0 0.0 0.00 1.33 1.33 99 1013.9
20260507030418 63 243 0.0 0.0 0.00 1.33 1.33 99 1014.0
20260507025915 63 251 0.0 0.9 0.00 1.33 1.33 99 1013.9
20260507025413 63 251 0.0 0.0 0.00 1.33 1.33 99 1013.8
20260507024910 63 251 0.0 0.9 0.00 1.33 1.33 99 1014.3
20260507024407 63 251 0.0 0.0 0.00 1.33 1.33 99 1014.3
20260507023903 63 258 0.0 0.0 0.00 1.33 1.33 99 1014.3
20260507023400 63 1 0.0 0.9 0.00 1.33 1.33 99 1014.2
20260507022857 63 1 0.0 0.0 0.00 1.33 1.33 99 1014.1
20260507022354 63 1 0.0 0.0 0.00 1.33 1.33 99 1014.7
20260507021850 63 1 0.0 0.0 0.00 1.33 1.33 99 1014.3
20260507021345 63 1 0.0 0.0 0.00 1.33 1.33 99 1014.0
20260507020843 63 1 0.0 0.0 0.00 1.33 1.33 99 1014.1
20260507020339 63 1 0.0 0.0 0.00 1.33 1.33 99 1014.0
20260507015837 63 1 0.0 0.0 0.00 1.33 1.33 99 1014.5
20260507015335 63 1 0.0 2.6 0.07 1.33 1.33 99 1014.2
20260507014831 63 2 0.9 2.6 0.07 1.33 1.33 99 1013.9
20260507014328 63 34 0.9 1.7 0.12 1.32 1.32 99 1013.9
20260507013824 63 19 1.7 2.6 0.12 1.32 1.32 99 1013.9
20260507013321 63 25 0.9 1.7 0.05 1.30 1.30 99 1014.2
20260507012819 63 21 0.9 1.7 0.28 1.30 1.30 99 1014.1
20260507012314 63 9 0.9 1.7 0.38 1.29 1.29 99 1014.3
20260507011806 63 9 0.0 1.7 0.42 1.25 1.25 99 1014.3
20260507011303 63 342 0.0 1.7 0.54 1.22 1.22 99 1014.6
20260507010802 63 359 0.9 1.7 0.28 1.17 1.17 99 1013.9
20260507010259 63 347 0.9 1.7 0.14 1.12 1.12 99 1014.2
20260507005756 63 11 0.0 1.7 0.12 1.11 1.11 99 1014.5
20260507005252 63 1 0.0 2.6 0.05 1.10 1.10 99 1014.7
20260507004749 63 327 0.9 1.7 0.07 1.09 1.09 99 1014.6
20260507004247 63 4 0.0 1.7 0.24 1.09 1.09 99 1014.5
20260507003743 63 355 0.0 1.7 0.71 1.08 1.08 99 1014.8
20260507003238 63 7 0.0 0.0 0.83 1.04 1.04 99 1014.8
20260507002734 63 1 0.0 0.0 0.42 0.94 0.94 99 1014.7
20260507002231 64 3 0.9 0.9 0.24 0.90 0.90 99 1014.6
20260507001727 64 3 0.9 0.9 0.24 0.87 0.87 99 1014.7
20260507001225 64 1 0.0 1.7 0.85 0.86 0.86 99 1014.7
20260507000721 64 348 0.9 2.6 2.62 0.82 0.82 99 1014.7
20260507000216 64 231 0.0 1.7 2.06 0.66 0.66 99 1014.6
20260506235714 64 270 0.0 0.9 0.31 0.35 0.35 99 1014.9
20260506235209 64 270 0.9 0.9 0.35 0.32 0.32 99 1014.4
20260506234706 64 311 0.9 1.7 0.54 0.29 0.29 99 1014.3
20260506234204 64 348 0.0 2.6 0.59 0.26 0.26 99 1013.8
20260506233701 65 345 0.0 0.9 0.17 0.19 0.19 99 1014.1
20260506233157 64 317 0.0 0.9 0.07 0.16 0.16 99 1014.2
20260506232654 64 355 0.0 0.0 0.19 0.16 0.16 99 1014.1
20260506232149 65 353 2.6 2.6 0.12 0.15 0.15 99 1014.3
20260506231646 65 263 0.9 1.7 0.00 0.13 0.13 99 1014.5
20260506231145 65 188 0.0 0.9 0.12 0.13 0.13 99 1013.9
20260506230641 65 331 0.0 0.0 0.12 0.13 0.13 98 1013.1
20260506230138 65 233 0.0 0.0 0.42 0.11 0.11 98 1013.3
20260506225635 65 268 0.0 0.0 0.17 0.06 0.06 97 1013.7
20260506225132 65 335 0.0 0.0 0.05 0.04 0.04 97 1013.4
20260506224628 65 349 1.7 1.7 0.00 0.03 0.03 97 1013.1
20260506224125 65 4 0.0 0.9 0.00 0.03 0.03 97 1013.2
20260506223621 65 0 0.0 1.7 0.00 0.03 0.03 96 1013.3
20260506223117 65 356 0.0 0.9 0.00 0.03 0.03 96 1013.2
20260506222614 65 349 0.0 0.0 0.00 0.03 0.03 96 1013.3
20260506222111 65 349 0.0 2.6 0.00 0.03 0.03 95 1013.2
20260506221608 65 354 0.0 0.9 0.00 0.03 0.03 95 1013.5
20260506221106 65 348 0.9 2.6 0.00 0.03 0.03 94 1013.3
20260506220602 66 351 1.7 2.6 0.00 0.03 0.03 94 1013.5
20260506220057 66 350 0.0 1.7 0.00 0.03 0.03 93 1013.5
20260506215554 66 350 0.0 0.9 0.00 0.03 0.03 93 1013.7
20260506215050 66 353 0.0 1.7 0.00 0.03 0.03 92 1013.6
20260506214547 67 350 0.0 2.6 0.00 0.03 0.03 91 1013.7
20260506214044 67 251 0.0 1.7 0.00 0.03 0.03 91 1013.6
20260506213543 67 250 0.0 0.9 0.00 0.03 0.03 91 1013.5
20260506213040 67 207 0.0 0.9 0.00 0.03 0.03 90 1013.2
20260506212536 67 207 0.9 1.7 0.00 0.03 0.03 89 1013.4
20260506212031 67 248 0.0 1.7 0.00 0.03 0.03 89 1013.4
20260506211527 67 204 0.0 2.6 0.07 0.03 0.03 89 1013.5
20260506211025 68 199 0.0 1.7 0.12 0.03 0.03 87 1013.5
20260506210521 69 285 4.3 7.8 0.05 0.02 0.02 83 1013.4
20260506210018 69 210 4.3 6.1 0.00 0.01 0.01 83 1013.4
20260506205515 70 201 2.6 7.0 0.00 0.01 0.01 81 1013.4
20260506205010 71 241 3.5 7.8 0.00 0.01 0.01 81 1013.2
20260506204508 73 260 1.7 8.7 0.00 0.01 0.01 80 1013.3
20260506204005 77 239 0.0 2.6 0.00 0.01 0.01 80 1013.3
20260506203503 77 207 0.0 2.6 0.00 0.01 0.01 80 1013.2
20260506202959 77 190 0.0 1.7 0.00 0.01 0.01 80 1013.2
20260506202456 77 109 0.0 1.7 0.00 0.01 0.01 79 1013.2
20260506201952 77 93 0.0 0.9 0.00 0.01 0.01 79 1013.1
20260506201450 77 105 0.0 0.9 0.00 0.01 0.01 79 1013.3
20260506200947 76 124 0.9 1.7 0.00 0.01 0.01 79 1013.4
20260506200443 76 206 0.0 1.7 0.00 0.01 0.01 80 1013.4
20260506195939 76 190 0.9 1.7 0.00 0.01 0.01 81 1013.5
20260506195436 77 122 1.7 1.7 0.00 0.01 0.01 80 1013.5
20260506194933 77 104 0.0 2.6 0.00 0.01 0.01 79 1013.2
20260506194431 77 86 1.7 2.6 0.00 0.01 0.01 78 1013.7
20260506193927 76 226 0.9 1.7 0.00 0.01 0.01 79 1013.6
20260506193425 76 112 2.6 2.6 0.00 0.01 0.01 80 1013.6
20260506192921 76 121 0.0 1.7 0.00 0.01 0.01 81 1013.9
20260506192418 76 88 0.9 1.7 0.00 0.01 0.01 80 1013.9
20260506191914 77 336 1.7 2.6 0.00 0.01 0.01 79 1013.7
20260506191410 77 91 0.0 0.0 0.00 0.01 0.01 79 1013.9
20260506190908 76 69 0.0 0.0 0.00 0.01 0.01 81 1013.9
20260506190404 76 91 0.0 0.0 0.00 0.01 0.01 81 1014.3